| time (UTC) | temp F | wind direction | speed MPH | gust MPH | rain 1hr in | rain 24hr in | rain mn in | humidity % | barometer mb |
| 20260902062703 | 58 | 124 | 2.0 | 4.0 | 0.00 | 0.00 | 0.00 | 93 | 1002.7 |
| 20260902061803 | 57 | 133 | 2.0 | 4.0 | 0.00 | 0.00 | 0.00 | 93 | 1002.9 |
| 20260902060905 | 58 | 147 | 2.0 | 4.0 | 0.00 | 0.00 | 0.00 | 92 | 1002.8 |
| 20260902060005 | 58 | 143 | 2.0 | 4.0 | 0.00 | 0.00 | 0.00 | 91 | 1002.9 |
| 20260902055405 | 58 | 128 | 2.0 | 4.0 | 0.00 | 0.00 | 0.00 | 90 | 1002.8 |
| 20260902054505 | 58 | 112 | 1.0 | 2.0 | 0.00 | 0.00 | 0.00 | 91 | 1002.8 |
| 20260902053624 | 58 | 131 | 1.0 | 2.0 | 0.00 | 0.00 | 0.00 | 91 | 1002.6 |
| 20260902052703 | 57 | 135 | 1.0 | 2.0 | 0.00 | 0.00 | 0.00 | 92 | 1002.8 |
| 20260902051824 | 57 | 126 | 1.0 | 2.0 | 0.00 | 0.00 | 0.00 | 92 | 1002.8 |
| 20260902050903 | 57 | 112 | 1.0 | 2.0 | 0.00 | 0.00 | 0.00 | 93 | 1003.0 |
| 20260902050005 | 56 | 112 | 0.0 | 4.0 | 0.00 | 0.00 | 0.00 | 95 | 1002.9 |
| 20260902045403 | 56 | 121 | 1.0 | 4.0 | 0.00 | 0.00 | 0.00 | 96 | 1003.0 |
| 20260902044503 | 56 | 145 | 0.0 | 2.0 | 0.00 | 0.00 | 0.00 | 95 | 1003.1 |
| 20260902043605 | 56 | 157 | 1.0 | 2.0 | 0.00 | 0.00 | 0.00 | 95 | 1003.0 |
| 20260902042703 | 56 | 161 | 2.0 | 4.0 | 0.00 | 0.00 | 0.00 | 95 | 1002.9 |
| 20260902041826 | 56 | 171 | 3.0 | 4.0 | 0.00 | 0.00 | 0.00 | 96 | 1002.7 |
| 20260902040903 | 56 | 199 | 2.0 | 6.0 | 0.00 | 0.00 | 0.00 | 96 | 1003.0 |
| 20260902040003 | 56 | 171 | 3.0 | 4.0 | 0.00 | 0.00 | 0.00 | 97 | 1002.8 |
| 20260902035405 | 56 | 180 | 2.0 | 4.0 | 0.00 | 0.00 | 0.00 | 97 | 1003.0 |
| 20260902034505 | 56 | 180 | 2.0 | 4.0 | 0.00 | 0.00 | 0.00 | 97 | 1002.9 |
| 20260902033624 | 56 | 174 | 1.0 | 4.0 | 0.00 | 0.00 | 0.00 | 98 | 1002.9 |
| 20260902032703 | 55 | 172 | 3.0 | 4.0 | 0.00 | 0.00 | 0.00 | 99 | 1003.0 |
| 20260902031803 | 55 | 180 | 0.0 | 2.0 | 0.00 | 0.00 | 0.00 | 99 | 1003.1 |
| 20260902030903 | 54 | 180 | 0.0 | 2.0 | 0.00 | 0.00 | 0.00 | 99 | 1003.1 |
| 20260902030003 | 54 | 180 | 2.0 | 2.0 | 0.00 | 0.00 | 0.00 | 98 | 1003.3 |
| 20260902025403 | 54 | 180 | 0.0 | 2.0 | 0.00 | 0.00 | 0.00 | 98 | 1003.4 |
| 20260902024503 | 54 | 180 | 0.0 | 2.0 | 0.00 | 0.00 | 0.00 | 98 | 1003.4 |
| 20260902023626 | 54 | 180 | 2.0 | 2.0 | 0.00 | 0.00 | 0.00 | 98 | 1003.6 |
| 20260902022703 | 53 | 180 | 0.0 | 2.0 | 0.00 | 0.00 | 0.00 | 98 | 1003.5 |
| 20260902021803 | 54 | 180 | 0.0 | 4.0 | 0.00 | 0.00 | 0.00 | 98 | 1003.4 |
| 20260902020903 | 54 | 143 | 2.0 | 4.0 | 0.00 | 0.00 | 0.00 | 99 | 1003.5 |
| 20260902020003 | 53 | 112 | 2.0 | 4.0 | 0.00 | 0.00 | 0.00 | 99 | 1003.6 |
| 20260902015403 | 53 | 105 | 2.0 | 2.0 | 0.00 | 0.00 | 0.00 | 99 | 1003.5 |
| 20260902014503 | 51 | 90 | 1.0 | 2.0 | 0.00 | 0.00 | 0.00 | 99 | 1003.6 |
| 20260902013603 | 51 | 112 | 0.0 | 2.0 | 0.00 | 0.00 | 0.00 | 99 | 1003.5 |
| 20260902012724 | 53 | 112 | 1.0 | 2.0 | 0.00 | 0.00 | 0.00 | 99 | 1003.6 |
| 20260902011803 | 53 | 109 | 1.0 | 2.0 | 0.00 | 0.00 | 0.00 | 98 | 1003.7 |
| 20260902010903 | 51 | 0 | 0.0 | 0.0 | 0.00 | 0.00 | 0.00 | 98 | 1003.6 |
| 20260902010005 | 51 | 0 | 0.0 | 0.0 | 0.00 | 0.00 | 0.00 | 98 | 1003.3 |
| 20260902005403 | 51 | 90 | 0.0 | 2.0 | 0.00 | 0.00 | 0.00 | 97 | 1003.6 |
| 20260902004505 | 51 | 95 | 0.0 | 4.0 | 0.00 | 0.00 | 0.00 | 97 | 1003.6 |
| 20260902003606 | 51 | 90 | 0.0 | 2.0 | 0.00 | 0.00 | 0.00 | 97 | 1003.4 |
| 20260902002724 | 51 | 0 | 0.0 | 0.0 | 0.00 | 0.00 | 0.00 | 96 | 1003.5 |
| 20260902001803 | 51 | 0 | 0.0 | 0.0 | 0.00 | 0.00 | 0.00 | 96 | 1003.7 |
| 20260902000904 | 51 | 0 | 0.0 | 0.0 | 0.00 | 0.00 | 0.00 | 95 | 1003.8 |
| 20260902000005 | 52 | 0 | 0.0 | 0.0 | 0.00 | 0.00 | 0.00 | 96 | 1003.7 |
| 20260901235403 | 52 | 0 | 0.0 | 0.0 | 0.00 | 0.00 | 0.00 | 95 | 1003.3 |
| 20260901234505 | 52 | 0 | 0.0 | 0.0 | 0.00 | 0.00 | 0.00 | 95 | 1003.6 |
| 20260901233605 | 52 | 0 | 0.0 | 0.0 | 0.00 | 0.00 | 0.00 | 95 | 1003.6 |
| 20260901232703 | 52 | 0 | 0.0 | 0.0 | 0.00 | 0.00 | 0.00 | 95 | 1003.7 |
| 20260901231803 | 52 | 0 | 0.0 | 0.0 | 0.00 | 0.00 | 0.00 | 94 | 1003.8 |
| 20260901230903 | 52 | 0 | 0.0 | 0.0 | 0.00 | 0.00 | 0.00 | 94 | 1004.0 |
| 20260901230005 | 52 | 0 | 0.0 | 0.0 | 0.00 | 0.00 | 0.00 | 95 | 1003.9 |
| 20260901225403 | 52 | 0 | 0.0 | 0.0 | 0.00 | 0.00 | 0.00 | 95 | 1003.8 |
| 20260901224524 | 52 | 0 | 0.0 | 0.0 | 0.00 | 0.00 | 0.00 | 95 | 1003.7 |
| 20260901223603 | 53 | 0 | 0.0 | 0.0 | 0.00 | 0.00 | 0.00 | 94 | 1003.8 |
| 20260901222705 | 53 | 0 | 0.0 | 0.0 | 0.00 | 0.00 | 0.00 | 94 | 1003.9 |
| 20260901221805 | 53 | 0 | 0.0 | 0.0 | 0.00 | 0.00 | 0.00 | 93 | 1004.1 |
| 20260901220903 | 54 | 90 | 0.0 | 2.0 | 0.00 | 0.00 | 0.00 | 92 | 1004.0 |
| 20260901220004 | 54 | 90 | 0.0 | 2.0 | 0.00 | 0.00 | 0.00 | 91 | 1004.2 |
| 20260901215403 | 54 | 90 | 0.0 | 2.0 | 0.00 | 0.00 | 0.00 | 91 | 1004.1 |
| 20260901214505 | 54 | 0 | 0.0 | 0.0 | 0.00 | 0.00 | 0.00 | 91 | 1004.0 |
| 20260901213624 | 53 | 0 | 0.0 | 0.0 | 0.00 | 0.00 | 0.00 | 90 | 1003.9 |
| 20260901212703 | 54 | 90 | 0.0 | 2.0 | 0.00 | 0.00 | 0.00 | 90 | 1004.0 |
| 20260901211803 | 54 | 95 | 1.0 | 2.0 | 0.00 | 0.00 | 0.00 | 90 | 1003.9 |
| 20260901210903 | 54 | 0 | 0.0 | 0.0 | 0.00 | 0.00 | 0.00 | 92 | 1004.0 |
| 20260901210005 | 54 | 0 | 0.0 | 0.0 | 0.00 | 0.00 | 0.00 | 91 | 1004.2 |
| 20260901205425 | 54 | 0 | 0.0 | 0.0 | 0.00 | 0.00 | 0.00 | 90 | 1004.0 |
| 20260901204524 | 55 | 0 | 0.0 | 0.0 | 0.00 | 0.00 | 0.00 | 89 | 1004.1 |
| 20260901203605 | 55 | 0 | 0.0 | 0.0 | 0.00 | 0.00 | 0.00 | 88 | 1004.3 |
| 20260901202703 | 55 | 0 | 0.0 | 0.0 | 0.00 | 0.00 | 0.00 | 88 | 1004.0 |
| 20260901201824 | 56 | 0 | 0.0 | 0.0 | 0.00 | 0.00 | 0.00 | 88 | 1004.1 |
| 20260901200903 | 56 | 0 | 0.0 | 0.0 | 0.00 | 0.00 | 0.00 | 87 | 1003.9 |
| 20260901200003 | 56 | 0 | 0.0 | 0.0 | 0.00 | 0.00 | 0.00 | 86 | 1003.9 |
| 20260901195405 | 56 | 0 | 0.0 | 0.0 | 0.00 | 0.00 | 0.00 | 85 | 1003.9 |
| 20260901194504 | 57 | 0 | 0.0 | 0.0 | 0.00 | 0.00 | 0.00 | 84 | 1004.1 |
| 20260901193603 | 57 | 0 | 0.0 | 0.0 | 0.00 | 0.00 | 0.00 | 83 | 1003.9 |
| 20260901192703 | 57 | 0 | 0.0 | 0.0 | 0.00 | 0.00 | 0.00 | 84 | 1003.9 |
| 20260901191805 | 58 | 0 | 0.0 | 0.0 | 0.00 | 0.00 | 0.00 | 81 | 1004.1 |
| 20260901190926 | 58 | 0 | 0.0 | 0.0 | 0.00 | 0.00 | 0.00 | 82 | 1004.0 |
| 20260901190024 | 57 | 0 | 0.0 | 0.0 | 0.00 | 0.00 | 0.00 | 80 | 1004.2 |
| 20260901185405 | 58 | 0 | 0.0 | 0.0 | 0.00 | 0.00 | 0.00 | 79 | 1004.1 |
| 20260901184503 | 59 | 0 | 0.0 | 0.0 | 0.00 | 0.00 | 0.00 | 76 | 1003.7 |
| 20260901183605 | 59 | 0 | 0.0 | 0.0 | 0.00 | 0.00 | 0.00 | 74 | 1003.8 |
| 20260901182704 | 60 | 0 | 0.0 | 0.0 | 0.00 | 0.00 | 0.00 | 73 | 1003.8 |
| 20260901181803 | 61 | 112 | 0.0 | 2.0 | 0.00 | 0.00 | 0.00 | 70 | 1003.9 |
| 20260901180904 | 63 | 112 | 1.0 | 2.0 | 0.00 | 0.00 | 0.00 | 67 | 1003.8 |
| 20260901180003 | 64 | 0 | 0.0 | 0.0 | 0.00 | 0.00 | 0.00 | 62 | 1003.9 |
| 20260901175403 | 64 | 0 | 0.0 | 0.0 | 0.00 | 0.00 | 0.00 | 61 | 1003.5 |
| 20260901174524 | 65 | 0 | 0.0 | 0.0 | 0.00 | 0.00 | 0.00 | 62 | 1003.9 |
| 20260901173603 | 66 | 112 | 0.0 | 2.0 | 0.00 | 0.00 | 0.00 | 61 | 1003.8 |
| 20260901172703 | 67 | 112 | 0.0 | 2.0 | 0.00 | 0.00 | 0.00 | 59 | 1003.5 |
| 20260901171803 | 68 | 112 | 0.0 | 2.0 | 0.00 | 0.00 | 0.00 | 56 | 1003.8 |
| 20260901170904 | 69 | 107 | 0.0 | 2.0 | 0.00 | 0.00 | 0.00 | 51 | 1003.8 |
| 20260901170025 | 71 | 112 | 0.0 | 2.0 | 0.00 | 0.00 | 0.00 | 50 | 1003.9 |
| 20260901165404 | 73 | 0 | 0.0 | 0.0 | 0.00 | 0.00 | 0.00 | 43 | 1003.8 |
| 20260901164526 | 73 | 90 | 0.0 | 2.0 | 0.00 | 0.00 | 0.00 | 44 | 1003.7 |
| 20260901163603 | 72 | 90 | 0.0 | 2.0 | 0.00 | 0.00 | 0.00 | 46 | 1003.9 |
| 20260901162726 | 71 | 90 | 1.0 | 2.0 | 0.00 | 0.00 | 0.00 | 47 | 1003.8 |
| 20260901161805 | 73 | 96 | 1.0 | 4.0 | 0.00 | 0.00 | 0.00 | 44 | 1003.9 |
| 20260901160903 | 72 | 90 | 1.0 | 4.0 | 0.00 | 0.00 | 0.00 | 45 | 1003.8 |
| 20260901160003 | 71 | 90 | 2.0 | 4.0 | 0.00 | 0.00 | 0.00 | 45 | 1003.8 |
| 20260901155406 | 72 | 93 | 2.0 | 4.0 | 0.00 | 0.00 | 0.00 | 45 | 1003.9 |
| 20260901154503 | 71 | 108 | 2.0 | 4.0 | 0.00 | 0.00 | 0.00 | 44 | 1003.8 |
| 20260901153603 | 72 | 113 | 2.0 | 4.0 | 0.00 | 0.00 | 0.00 | 42 | 1003.9 |
| 20260901152724 | 73 | 25 | 2.0 | 4.0 | 0.00 | 0.00 | 0.00 | 41 | 1003.8 |
| 20260901151803 | 74 | 286 | 1.0 | 4.0 | 0.00 | 0.00 | 0.00 | 39 | 1003.8 |
| 20260901150903 | 75 | 309 | 3.0 | 4.0 | 0.00 | 0.00 | 0.00 | 38 | 1004.1 |
| 20260901150003 | 76 | 328 | 1.0 | 4.0 | 0.00 | 0.00 | 0.00 | 37 | 1004.0 |
| 20260901145404 | 76 | 7 | 2.0 | 4.0 | 0.00 | 0.00 | 0.00 | 37 | 1003.9 |
| 20260901144503 | 76 | 9 | 2.0 | 4.0 | 0.00 | 0.00 | 0.00 | 37 | 1003.8 |
| 20260901143603 | 75 | 329 | 1.0 | 6.0 | 0.00 | 0.00 | 0.00 | 38 | 1003.9 |
| 20260901142704 | 76 | 270 | 3.0 | 4.0 | 0.00 | 0.00 | 0.00 | 36 | 1003.9 |
| 20260901141803 | 74 | 292 | 3.0 | 6.0 | 0.00 | 0.00 | 0.00 | 40 | 1004.0 |
| 20260901140903 | 74 | 311 | 4.0 | 6.0 | 0.00 | 0.00 | 0.00 | 39 | 1004.1 |
| 20260901140005 | 74 | 248 | 4.0 | 7.0 | 0.00 | 0.00 | 0.00 | 40 | 1004.1 |
| 20260901135403 | 72 | 222 | 3.0 | 7.0 | 0.00 | 0.00 | 0.00 | 42 | 1004.1 |
| 20260901134505 | 73 | 258 | 3.0 | 6.0 | 0.00 | 0.00 | 0.00 | 41 | 1004.3 |
| 20260901133605 | 74 | 251 | 2.0 | 7.0 | 0.00 | 0.00 | 0.00 | 43 | 1004.2 |
| 20260901132703 | 74 | 286 | 1.0 | 6.0 | 0.00 | 0.00 | 0.00 | 41 | 1004.2 |
| 20260901131803 | 76 | 260 | 1.0 | 4.0 | 0.00 | 0.00 | 0.00 | 40 | 1004.2 |
| 20260901130924 | 75 | 270 | 3.0 | 6.0 | 0.00 | 0.00 | 0.00 | 41 | 1004.5 |
| 20260901130003 | 72 | 281 | 3.0 | 7.0 | 0.00 | 0.00 | 0.00 | 43 | 1004.2 |
| 20260901125403 | 74 | 283 | 3.0 | 4.0 | 0.00 | 0.00 | 0.00 | 42 | 1004.2 |
| 20260901124504 | 74 | 250 | 2.0 | 6.0 | 0.00 | 0.00 | 0.00 | 45 | 1004.2 |
| 20260901123604 | 74 | 199 | 3.0 | 4.0 | 0.00 | 0.00 | 0.00 | 45 | 1004.3 |
| 20260901122705 | 73 | 196 | 2.0 | 6.0 | 0.00 | 0.00 | 0.00 | 45 | 1004.4 |
| 20260901121803 | 71 | 100 | 2.0 | 4.0 | 0.00 | 0.00 | 0.00 | 48 | 1004.2 |
| 20260901120903 | 70 | 99 | 1.0 | 6.0 | 0.00 | 0.00 | 0.00 | 50 | 1004.3 |
| 20260901120004 | 70 | 96 | 2.0 | 6.0 | 0.00 | 0.00 | 0.00 | 50 | 1004.4 |
| 20260901115405 | 71 | 95 | 0.0 | 6.0 | 0.00 | 0.00 | 0.00 | 50 | 1004.4 |
| 20260901114503 | 70 | 103 | 2.0 | 4.0 | 0.00 | 0.00 | 0.00 | 54 | 1004.3 |
| 20260901113605 | 71 | 84 | 2.0 | 4.0 | 0.00 | 0.00 | 0.00 | 52 | 1004.4 |
| 20260901112703 | 69 | 94 | 2.0 | 8.0 | 0.00 | 0.00 | 0.00 | 54 | 1004.5 |
| 20260901111824 | 68 | 82 | 3.0 | 8.0 | 0.00 | 0.00 | 0.00 | 57 | 1004.4 |
| 20260901110903 | 70 | 343 | 2.0 | 2.0 | 0.00 | 0.00 | 0.00 | 55 | 1004.5 |
| 20260901110024 | 69 | 342 | 2.0 | 4.0 | 0.00 | 0.00 | 0.00 | 54 | 1004.6 |
| 20260901105405 | 69 | 39 | 1.0 | 4.0 | 0.00 | 0.00 | 0.00 | 53 | 1004.3 |
| 20260901104503 | 70 | 351 | 2.0 | 4.0 | 0.00 | 0.00 | 0.00 | 52 | 1004.4 |
| 20260901103605 | 68 | 296 | 3.0 | 4.0 | 0.00 | 0.00 | 0.00 | 55 | 1004.3 |
| 20260901102703 | 69 | 323 | 2.0 | 4.0 | 0.00 | 0.00 | 0.00 | 54 | 1004.5 |
| 20260901101824 | 70 | 338 | 1.0 | 4.0 | 0.00 | 0.00 | 0.00 | 53 | 1004.5 |
| 20260901100903 | 68 | 326 | 3.0 | 4.0 | 0.00 | 0.00 | 0.00 | 57 | 1004.3 |
| 20260901100003 | 69 | 3 | 2.0 | 4.0 | 0.00 | 0.00 | 0.00 | 57 | 1004.1 |
| 20260901095405 | 67 | 322 | 2.0 | 6.0 | 0.00 | 0.00 | 0.00 | 60 | 1004.2 |
| 20260901094503 | 65 | 287 | 1.0 | 6.0 | 0.00 | 0.00 | 0.00 | 64 | 1004.2 |
| 20260901093605 | 66 | 291 | 2.0 | 4.0 | 0.00 | 0.00 | 0.00 | 64 | 1004.2 |
| 20260901092705 | 66 | 331 | 0.0 | 4.0 | 0.00 | 0.00 | 0.00 | 63 | 1004.3 |
| 20260901091803 | 65 | 337 | 2.0 | 6.0 | 0.00 | 0.00 | 0.00 | 64 | 1004.3 |
| 20260901090903 | 66 | 356 | 1.0 | 4.0 | 0.00 | 0.00 | 0.00 | 63 | 1004.0 |
| 20260901090003 | 65 | 336 | 1.0 | 6.0 | 0.00 | 0.00 | 0.00 | 67 | 1004.3 |
| 20260901085403 | 64 | 353 | 2.0 | 6.0 | 0.00 | 0.00 | 0.00 | 68 | 1004.3 |
| 20260901084503 | 66 | 4 | 2.0 | 4.0 | 0.00 | 0.00 | 0.00 | 65 | 1004.3 |
| 20260901083605 | 65 | 36 | 2.0 | 4.0 | 0.00 | 0.00 | 0.00 | 69 | 1004.0 |
| 20260901082703 | 65 | 43 | 2.0 | 2.0 | 0.00 | 0.00 | 0.00 | 68 | 1004.2 |
| 20260901081803 | 64 | 7 | 0.0 | 4.0 | 0.00 | 0.00 | 0.00 | 70 | 1004.0 |
| 20260901080903 | 62 | 349 | 2.0 | 4.0 | 0.00 | 0.00 | 0.00 | 74 | 1004.0 |
| 20260901080003 | 63 | 29 | 2.0 | 4.0 | 0.00 | 0.00 | 0.00 | 73 | 1004.1 |
| 20260901075405 | 62 | 31 | 1.0 | 4.0 | 0.00 | 0.00 | 0.00 | 75 | 1004.1 |
| 20260901074503 | 61 | 22 | 1.0 | 4.0 | 0.00 | 0.00 | 0.00 | 76 | 1004.1 |
| 20260901073624 | 61 | 33 | 2.0 | 4.0 | 0.00 | 0.00 | 0.00 | 77 | 1004.2 |
| 20260901072703 | 60 | 351 | 1.0 | 6.0 | 0.00 | 0.00 | 0.00 | 79 | 1004.1 |
| 20260901071824 | 60 | 342 | 1.0 | 7.0 | 0.00 | 0.00 | 0.00 | 80 | 1004.0 |
| 20260901070903 | 60 | 342 | 2.0 | 7.0 | 0.00 | 0.00 | 0.00 | 81 | 1004.1 |
| 20260901070026 | 59 | 347 | 2.0 | 6.0 | 0.00 | 0.00 | 0.00 | 82 | 1004.0 |
| 20260901065403 | 59 | 338 | 2.0 | 6.0 | 0.00 | 0.00 | 0.00 | 83 | 1004.0 |
| 20260901064524 | 58 | 314 | 2.0 | 6.0 | 0.00 | 0.00 | 0.00 | 86 | 1003.8 |
| 20260901063624 | 57 | 319 | 4.0 | 7.0 | 0.00 | 0.00 | 0.00 | 88 | 1004.0 |